Mexicali, Mexico

9:27 PM PDT on August 17, 2017 (GMT -0700)
Gen Rodolfo Sanchez Taboada

Weather History for MMML - October, 2012

Change the Weather History Date:

Monday, October 15, 2012

  Actual Average Record
Temperature  
Mean Temperature 80 °F -  
Max Temperature 95 °F 82 °F 100 °F (2011)
Min Temperature 64 °F 54 °F 55 °F (2000)
Cooling Degree Days 14    
Growing Degree Days 30 (Base 50)    
Moisture  
Dew Point 40 °F    
Average Humidity 25    
Maximum Humidity 49    
Minimum Humidity 12    
Precipitation  
Precipitation 0.00 in - - ()
Sea Level Pressure  
Sea Level Pressure 29.86 in    
Wind  
Wind Speed 2 mph ()    
Max Wind Speed 9 mph    
Max Gust Speed -    
Visibility 10.0 miles    
Events      
Averages and records for this station are not official NWS values.
T = Trace of Precipitation, MM = Missing Value Source: Averaged Metar Reports

Daily Weather History Graph

Daily Weather History Graph

Search for Another Location

Airport or City:

Trip Planner

Search our weather history database for the weather conditions in past years. The results will help you decide how hot, cold, wet, or windy it might be!

Date:

Astronomy

Oct. 15, 2012 Rise Set
Actual Time 6:45 AM PDT 6:07 PM PDT
Civil Twilight 6:20 AM PDT 6:32 PM PDT
Nautical Twilight 5:51 AM PDT 7:00 PM PDT
Astronomical Twilight 5:23 AM PDT 7:29 PM PDT
Moon 6:57 AM PDT (10/15) 6:14 PM PDT (10/15)
Length of Visible Light 12h 11m
Length of Day
11h 22m
New Moon, 0% of the Moon is Illuminated
Oct 15
New Moon
Oct 21
First Quarter
Oct 29
Full
Nov 6
Last Quarter
Nov 13
New

Hourly Weather History & Observations

Time (PDT) Temp. Dew Point Humidity Pressure Visibility Wind Dir Wind Speed Gust Speed Precip Events Conditions
12:42 AM 71.6 °F 44.6 °F 38% 29.90 in 10.0 mi WNW 6.9 mph - N/A   Clear
6:01 AM 64.4 °F 44.6 °F 49% 29.89 in 10.0 mi Calm Calm - N/A   Clear
6:44 AM 64.4 °F 44.6 °F 49% 29.89 in 10.0 mi Calm Calm - N/A   Clear
7:42 AM 68.0 °F 41.0 °F 37% 29.94 in 10.0 mi Calm Calm - N/A   Clear
8:22 AM 73.4 °F 41.0 °F 31% 29.91 in 10.0 mi Calm Calm - N/A   Clear
8:43 AM 78.8 °F 41.0 °F 26% 29.91 in 10.0 mi NW 4.6 mph - N/A   Clear
9:40 AM 82.4 °F 42.8 °F 25% 29.91 in 10.0 mi WNW 6.9 mph - N/A   Clear
10:49 AM 87.8 °F 41.0 °F 19% 29.95 in 10.0 mi NW 9.2 mph - N/A   Clear
11:43 AM 91.4 °F 39.2 °F 16% 29.90 in 10.0 mi Calm Calm - N/A   Clear
12:43 PM 93.2 °F 37.4 °F 14% 29.87 in 10.0 mi Calm Calm - N/A   Clear
1:45 PM 93.2 °F 37.4 °F 14% 29.87 in 10.0 mi Calm Calm - N/A   Clear
2:48 PM 95.0 °F 37.4 °F 13% 29.82 in 10.0 mi Calm Calm - N/A   Clear
3:48 PM 95.0 °F 35.6 °F 12% 29.80 in 10.0 mi Calm Calm - N/A   Clear
5:47 PM 93.2 °F 35.6 °F 13% 29.78 in 10.0 mi WNW 5.8 mph - N/A   Clear
6:49 PM 87.8 °F 35.6 °F 16% 29.79 in 10.0 mi Calm Calm - N/A   Clear
7:49 PM 86.0 °F 39.2 °F 19% 29.81 in 10.0 mi Calm Calm - N/A   Clear
8:44 PM 82.4 °F 41.0 °F 23% 29.80 in 10.0 mi Calm Calm - N/A   Clear
9:50 PM 75.2 °F 39.2 °F 27% 29.81 in 10.0 mi Calm Calm - N/A   Clear
10:48 PM 75.2 °F 39.2 °F 27% 29.83 in 10.0 mi Calm Calm - N/A   Clear
11:42 PM 73.4 °F 41.0 °F 31% 29.81 in 10.0 mi NW 6.9 mph - N/A   Clear